Theta_e
332 331 332 332 332 332 332 330 329 329 327 327 327 328 328 329 331 332 333 332 331 332 332 333 333 334 332 333 333 334 331 331 328 326 325 325 323 323 323 324 322 325 324
331 331 331 333 333 333 332 330 329 328 327 327 327 328 328 329 331 333 331 331 331 332 333 332 333 334 334 334 332 331 329 328 326 326 325 325 324 323 322 323 323 321 320
331 331 332 332 333 333 332 330 328 327 327 327 327 327 329 331 332 331 331 331 332 333 333 333 333 334 335 333 331 331 329 328 326 325 327 325 324 323 326 324 325 324 323
330 330 331 332 332 333 330 329 328 326 326 328 328 329 329 330 331 331 329 331 332 332 332 334 334 335 334 332 331 329 328 327 326 327 326 326 325 326 324 325 324 323 322
329 330 332 332 332 331 330 329 328 327 328 328 328 329 330 330 330 332 332 332 330 331 332 333 332 333 333 331 328 329 328 327 327 326 326 326 325 325 324 322 321 321 318
329 330 331 331 331 330 330 330 329 330 329 329 328 329 330 329 329 329 331 332 331 331 330 328 328 329 331 330 330 328 328 327 326 326 326 325 325 325 323 319 319 319 321
329 330 329 330 330 330 330 329 329 329 329 329 329 329 331 327 324 328 329 333 333 333 332 331 329 329 330 330 330 329 327 326 326 325 325 325 324 325 322 322 322 322 322
329 329 329 330 331 330 330 331 332 333 332 332 331 331 331 326 324 327 330 333 333 333 332 331 330 330 330 330 329 329 327 327 325 324 324 324 323 324 325 322 322 324 322
328 329 329 331 331 331 331 332 333 334 334 333 332 332 330 326 325 327 330 332 331 332 332 331 331 330 329 328 329 327 327 326 325 323 322 323 320 326 326 323 326 325 322
328 329 329 330 330 330 331 332 333 333 332 333 332 332 330 328 327 328 330 331 332 331 331 331 330 330 329 329 329 328 326 326 325 324 323 325 327 327 324 324 325 324 323
326 329 329 330 330 332 331 332 332 331 331 333 333 332 331 330 328 329 330 332 332 331 330 329 328 328 329 329 326 326 326 326 326 327 326 325 327 327 324 324 324 327 326
325 329 330 330 330 332 332 330 329 330 332 333 333 331 330 330 327 328 330 332 330 330 328 328 326 326 327 329 330 330 329 328 328 328 329 329 328 321 321 326 326 328 328
324 328 329 331 330 332 332 329 329 329 332 333 333 332 331 330 327 327 329 330 331 332 329 327 325 322 321 327 329 328 326 327 326 325 325 325 324 322 325 330 330 326 323
324 327 328 329 330 331 330 328 326 327 330 331 332 332 331 331 329 328 328 329 329 329 328 326 325 326 325 325 326 326 328 327 327 327 326 325 326 330 329 329 325 321 318
325 325 327 328 329 330 329 328 326 325 325 328 329 330 331 331 331 329 329 329 330 329 328 327 327 328 327 322 323 325 327 327 328 326 324 326 327 328 326 324 321 319 316
326 326 326 327 329 329 330 330 326 325 323 322 324 327 329 329 329 329 329 329 329 328 328 328 327 327 328 326 325 325 324 324 325 324 324 323 323 322 322 321 320 318 318
327 327 326 325 327 330 329 330 330 326 324 322 321 321 323 328 329 329 329 328 328 327 329 328 328 328 328 327 326 325 324 324 324 325 325 323 322 322 321 321 320 319 320
328 326 325 324 324 325 329 330 330 330 328 326 325 322 321 322 321 326 327 326 325 323 327 328 328 328 327 327 326 325 324 323 324 325 324 324 323 322 321 320 320 319 320
327 326 325 324 323 323 323 326 329 329 329 327 324 323 322 321 321 322 322 323 323 322 321 324 325 325 323 324 324 324 324 323 323 324 325 324 324 323 322 320 320 319 320
327 326 325 324 323 322 322 324 324 325 325 325 325 324 321 320 320 318 321 323 323 323 321 320 322 323 322 322 321 320 320 321 322 323 324 324 324 324 323 321 319 320 318
328 328 325 324 324 323 322 323 323 323 324 325 324 325 325 323 324 323 322 321 321 321 322 322 322 322 323 323 323 322 322 320 320 321 322 324 324 323 323 322 320 319 314
330 329 326 325 323 323 323 322 323 323 323 324 324 325 325 324 323 324 325 323 322 322 322 323 323 322 321 321 322 323 323 323 322 322 322 321 322 323 323 322 321 318 312
332 331 330 326 324 324 323 322 322 323 323 323 323 324 324 326 324 323 324 325 325 323 322 323 324 324 323 321 321 320 321 322 323 322 323 323 322 322 322 322 321 313 311
333 332 332 329 326 325 325 325 323 322 323 323 324 323 324 325 325 323 323 324 326 326 325 323 323 323 323 323 322 321 320 319 319 320 321 322 322 322 322 321 320 314 311
332 333 334 331 328 326 326 326 325 325 323 323 324 324 323 324 325 324 323 323 325 326 327 326 325 323 322 322 322 321 320 319 318 318 318 319 320 321 321 320 319 312 310
331 332 334 333 330 329 328 328 327 327 327 326 325 324 324 324 324 326 326 325 325 325 326 326 326 325 323 322 322 322 321 321 321 320 321 322 321 320 320 319 317 313 306
Wind_Speed
14 12 13 9 8 7 5 8 7 7 6 5 4 3 2 1 1 2 3 3 5 6 4 6 5 3 4 7 9 9 18 25 17 22 27 34 37 37 37 35 37 28 30
14 12 12 10 5 6 8 9 8 8 6 5 4 4 3 3 0 2 4 3 6 6 6 6 6 6 6 11 15 17 18 34 37 30 26 29 31 34 35 29 28 28 28
14 12 11 7 5 5 7 9 9 8 7 6 5 3 4 6 4 9 7 5 2 5 5 7 10 10 13 18 21 25 24 29 33 40 21 29 31 37 25 31 28 26 24
13 11 10 6 6 8 8 8 9 8 8 6 5 6 6 8 6 8 7 6 3 2 2 9 10 12 17 23 26 27 31 28 33 28 29 28 28 26 29 28 24 23 22
12 11 9 7 8 10 9 9 9 9 7 8 7 7 7 7 7 6 7 9 11 10 9 12 10 12 19 27 33 29 34 31 29 28 24 26 24 23 23 21 23 21 20
13 13 11 11 12 11 9 9 8 9 10 9 7 9 6 8 8 6 9 8 11 12 13 12 14 13 20 24 28 33 32 36 30 29 26 24 22 25 24 25 24 22 14
15 15 14 13 13 12 11 10 10 11 9 10 9 10 8 7 6 5 6 7 11 12 13 14 14 14 18 26 29 30 31 30 32 33 30 27 25 22 27 23 21 18 18
16 16 15 15 14 12 10 10 8 7 6 6 6 10 8 7 7 7 7 8 11 11 14 16 17 18 19 26 31 28 29 25 30 29 32 31 29 28 24 23 23 20 20
17 16 16 15 13 14 12 9 9 9 9 7 8 11 10 8 8 9 6 10 13 14 14 16 16 19 21 24 26 26 28 26 32 34 34 26 28 21 19 21 18 18 18
18 17 16 15 14 12 10 9 9 8 8 11 9 10 12 10 11 9 5 11 14 18 18 17 20 20 21 23 25 27 27 31 35 31 29 22 21 22 21 17 17 17 17
18 18 17 16 15 14 11 9 9 8 8 10 11 10 12 11 12 8 8 11 15 17 20 23 20 19 21 23 26 28 28 29 26 22 24 19 16 15 16 14 18 7 18
19 20 18 17 16 15 12 9 9 8 8 9 12 12 11 10 10 10 9 12 12 18 22 20 18 15 17 19 22 22 25 24 23 23 21 20 18 17 18 11 8 4 5
21 20 19 18 14 15 13 11 10 9 10 13 12 13 13 12 10 11 12 13 11 10 21 18 17 14 14 15 24 26 26 20 21 22 21 21 20 19 18 13 7 8 9
23 21 20 19 16 16 15 13 12 12 11 14 19 14 13 13 14 11 14 15 15 18 21 19 16 12 10 21 25 25 15 17 18 20 21 21 20 18 16 14 12 11 11
23 23 22 21 19 18 16 14 12 11 12 9 11 16 16 14 14 16 18 16 14 16 17 15 13 13 15 15 16 15 14 14 16 18 16 16 16 16 16 16 15 15 12
23 24 23 22 22 20 18 12 7 11 10 2 6 8 12 9 22 20 18 16 11 21 15 16 16 15 16 18 18 16 15 15 13 15 16 17 18 18 17 17 16 17 15
23 23 24 22 23 22 21 19 17 10 15 11 8 6 7 18 19 21 19 15 15 17 15 17 18 18 17 18 18 19 17 17 15 15 16 16 17 17 19 18 18 18 18
27 25 24 25 23 23 22 21 20 21 18 16 15 10 9 18 17 21 22 19 16 17 17 17 17 18 19 20 20 21 22 21 19 18 18 18 18 19 18 19 20 20 18
29 28 28 25 24 23 23 22 22 22 22 21 22 20 17 17 18 22 24 21 19 19 20 19 19 20 20 20 21 21 21 21 21 20 19 18 19 20 21 22 22 22 21
29 29 30 26 25 24 24 23 22 22 22 23 24 25 21 24 19 20 24 23 23 23 24 24 22 21 22 23 23 23 22 22 21 22 22 23 23 25 23 23 23 21 22
30 30 30 29 26 27 26 25 24 23 22 22 24 27 32 29 27 27 27 28 28 26 25 25 26 25 24 24 24 24 25 24 25 25 26 27 25 25 24 22 22 22 21
30 29 32 31 28 27 26 27 26 25 25 24 24 22 38 31 29 29 29 30 31 31 29 26 26 27 27 27 26 26 26 26 27 27 28 27 25 24 24 24 24 23 24
32 32 30 32 29 27 27 27 27 27 26 27 26 24 34 30 27 28 28 28 29 29 30 30 28 28 28 26 26 27 27 27 26 26 26 26 26 26 27 25 25 27 29
33 32 31 31 31 29 27 27 27 28 28 27 25 26 27 29 27 28 27 27 28 28 28 27 29 29 28 27 27 28 30 29 28 28 29 28 28 28 26 26 23 23 23
31 31 29 30 31 30 28 28 29 26 27 26 25 26 26 27 27 28 28 28 26 27 27 27 27 28 30 31 30 30 30 31 32 29 27 29 28 25 24 25 21 23 25
31 29 28 28 29 29 30 28 28 29 27 28 27 26 27 28 28 29 29 30 30 29 29 28 29 30 29 30 34 34 32 30 30 31 28 23 22 24 24 23 24 25 28
Wind_Direction
156 166 144 159 168 164 167 164 161 165 170 191 194 222 232 198 280 228 201 207 200 224 198 208 212 229 158 124 104 119 129 125 121 105 129 125 127 130 140 144 141 144 142
166 152 154 157 164 168 175 161 167 171 180 206 201 220 241 102 37 202 142 163 180 197 212 215 184 169 116 123 110 102 135 140 135 126 135 124 130 140 138 137 136 135 138
167 157 151 153 170 173 169 154 168 166 186 203 187 187 87 69 84 100 108 152 181 188 198 190 170 139 122 120 113 107 108 126 132 127 131 131 132 139 123 139 137 134 139
164 164 148 155 152 154 150 155 167 173 177 190 166 122 114 108 84 101 108 112 95 113 136 121 131 127 132 128 123 119 121 121 128 116 127 135 134 131 127 128 120 136 134
159 145 139 141 144 145 152 161 163 168 172 159 150 136 102 105 86 76 91 111 117 97 89 92 100 144 145 141 139 136 136 136 131 129 124 125 131 131 130 131 133 141 137
158 140 146 145 143 143 149 146 159 163 155 154 140 126 154 103 120 91 68 104 118 110 102 94 91 97 139 148 145 139 137 143 136 139 138 139 141 141 144 146 144 145 143
157 148 143 143 141 149 156 153 148 147 155 159 158 142 116 119 116 104 77 81 106 117 116 115 102 104 119 137 135 142 144 144 144 145 142 148 150 155 142 144 145 146 148
157 153 151 153 148 150 153 150 142 138 140 148 149 134 140 149 127 120 108 96 101 111 123 115 112 114 123 123 128 123 134 139 147 147 149 148 157 147 153 156 165 138 135
161 158 164 148 147 149 158 152 154 151 154 160 168 158 157 144 130 130 102 110 114 111 112 123 115 118 131 129 127 119 132 130 159 161 162 150 164 162 156 154 154 148 155
166 166 167 157 150 145 147 156 161 157 156 139 154 156 142 138 136 124 114 124 119 110 110 121 120 124 132 128 126 128 132 147 159 167 173 176 177 163 163 172 164 161 167
168 167 165 157 158 141 145 152 161 183 118 116 127 137 135 134 143 127 125 131 128 129 119 123 124 126 137 139 140 135 137 147 155 162 179 183 161 162 170 181 195 193 178
170 170 169 160 174 154 154 154 163 139 146 137 129 133 129 134 140 133 131 140 139 134 129 130 133 129 142 147 151 149 144 148 157 159 164 166 164 171 180 190 189 166 184
172 172 171 171 184 159 167 166 160 170 152 159 148 137 138 140 142 139 131 133 144 134 134 139 127 117 134 148 144 149 152 156 160 162 165 169 173 177 171 170 157 126 124
174 174 174 177 182 169 177 179 174 177 174 166 153 144 153 155 149 148 144 139 125 129 138 142 139 131 135 142 150 160 173 167 168 165 164 167 168 160 173 179 170 151 136
178 178 180 183 186 176 192 182 191 183 183 181 162 157 162 166 162 158 154 155 151 154 146 150 157 158 153 157 162 174 173 172 190 163 165 163 173 176 179 181 179 172 166
182 184 186 187 186 186 191 176 198 173 192 155 137 164 171 167 159 164 168 169 166 156 161 169 179 183 181 179 177 180 172 186 189 176 174 182 181 183 181 186 188 189 184
190 188 189 197 185 195 193 191 183 170 183 200 197 196 134 157 166 175 178 175 177 176 194 185 189 197 196 195 198 195 195 193 198 196 192 194 194 196 188 195 197 198 197
190 193 198 199 193 200 197 198 193 184 189 196 198 190 158 171 176 182 184 181 181 196 211 205 207 203 207 209 207 208 208 203 205 210 206 203 205 205 200 208 206 207 206
191 199 201 194 206 199 201 203 202 196 192 197 190 193 189 176 184 189 191 192 199 205 212 225 213 213 212 216 216 216 217 214 208 212 217 214 212 214 213 214 215 208 199
198 204 195 204 203 201 207 203 206 207 197 197 193 191 189 192 186 194 200 208 215 213 215 219 227 220 217 216 217 218 219 220 216 209 217 221 218 217 221 216 224 208 197
202 203 202 209 201 203 207 206 207 205 204 201 203 195 189 194 201 203 206 212 220 225 223 221 223 227 226 223 221 220 220 218 216 218 218 222 222 221 221 227 222 207 187
204 205 199 209 210 205 203 208 208 209 207 207 206 204 188 189 208 211 212 213 219 224 230 230 229 227 226 228 225 221 223 222 222 218 220 225 226 223 224 224 226 194 187
211 206 198 205 215 207 198 207 209 212 213 211 209 199 185 197 212 215 216 215 214 221 225 229 231 231 232 230 229 228 227 228 226 223 222 223 225 226 220 222 220 184 186
210 213 204 198 211 208 204 203 209 211 214 216 212 216 194 205 214 222 224 218 217 219 222 229 229 235 233 232 230 229 231 229 229 229 227 225 225 229 223 220 222 189 191
219 216 214 197 203 215 207 204 210 211 210 219 217 213 222 206 211 220 222 230 226 218 222 223 229 231 232 234 233 233 232 231 228 228 232 231 229 230 227 219 204 190 189
228 226 226 204 196 207 218 204 206 208 208 206 216 220 216 224 219 213 217 222 227 227 221 224 226 229 230 230 233 234 236 235 234 231 230 240 233 227 229 212 201 197 173